Location: Juzet
(42.9779°N, 0.7597°E)
Time: 02:39:37
(UTC+00:00)

CZ-4B R/B - Pass Details

Date: 14 July 2020
Orbit: 702 x 803 km, 98.9° (Epoch: 04 August)

Event Time Altitude Azimuth Distance (km) Brightness Sun altitude
Rises 02:19:31 0° 11° (N) 3,244 8.0 -18.2°
Reaches altitude 10° 02:21:53 10° 8° (N) 2,298 6.9 -17.9°
Maximum altitude 02:26:52 64° 288° (WNW) 822 3.5 -17.4°
Enters shadow 02:29:11 31° 217° (SW) 1,285 4.1 -17.2°
